Tracking 19638 objects as of 21-May-2019
HD Live streaming from Space Station
objects crossing your sky now

GLOBALSTAR M057

Track GLOBALSTAR M057 now!
10-day predictions
GLOBALSTAR M057 is classified as:


NORAD ID: 25943
Int'l Code: 1999-058A
Perigee: 1,577.1 km
Apogee: 1,581.1 km
Inclination: 52.0 °
Period: 117.6 minutes
Semi major axis: 7950 km
RCS: 2.7246 m2 (large)
Launch date: October 18, 1999
Source: Globalstar (GLOB)
Launch site: TYURATAM MISSILE AND SPACE COMPLEX (TTMTR)
aabbcc
Your satellite tracking list
Your tracking list is empty




NASA's NSSDC Master Catalog

Two Line Element Set (TLE):
1 25943U 99058A   19139.57854401 -.00000056  00000-0  33913-3 0  9995
2 25943  51.9961 169.5768 0002482 113.7415 246.3695 12.24739048894901
Source of the keplerian elements: AFSPC